THOR ABLESTAR DEB, 48819

Orbit data source: Space-Track

THOR ABLESTAR DEB, 48819 is space debris in LEO originally from a launch on Thu, 29 Jun 1961 UTC launched from the Air Force Eastern Test Range (AFETR). Debris objects in space refer to the collection of defunct objects orbiting the Earth. Examples of debris include non-operational satellites, rocket bodies, and fragments generated from explosions, collisions, or faulty payload assembly.

Loading next visibility...
Identifier
48819, 1961-015MX
Orbit
LEO
Country
Flag of USUS
Related business
Manufacturer
Unknown
Mission
Spacecraft
Bus & Motor
Unknown
Mass
Unknown
Launch date (UTC)
1961-06-29 (64 years ago)
Launch vehicle
Unknown
Launch site
Air Force Eastern Test Range (AFETR)
Object type
Payload
Rocket body
Debris
Shape & HBR
Unknown shape, 0.1 m
Radar Cross Section
Small (<0.1 m²)

Expand to show TLE details & history
Last TLE update: 14 hours ago

TLE from 14 hours ago
0 THOR ABLESTAR DEB
1 48819U 61015MX  25299.76783892  .00000289  00000-0  31120-3 0  9999
2 48819  66.5362 323.9479 0033749 247.7399 112.0095 13.87102476603831
Epoch: 2025-10-26T18:25Z
TLE epoch observation values (Epoch: 2025-10-26T18:25:41.282Z)
Latitude
-0.00007°
Longitude
12.14656°
Altitude
950.182 km
Speed
7.372 km/s
True Right ascension
21h 35m 47s
True Declination
0° 00' 00"
Sunlit
Object was in daylight at epoch
Visualization orbit readout
Latitude
Unknown
Longitude
Unknown
Altitude
Unknown
Speed
Unknown
Apparent Right ascension
Unknown
Apparent Declination
Unknown
Sunlit
N/A
Visualization observer readout
Local Sidereal Time
03:47:06
Azimuth
Unknown
Elevation
Unknown
Doppler factor
Unknown
Orbital elements
Apogee altitude
961.918 km
Perigee altitude
912.541 km
Semi-major axis
7,315.366 km
Eccentricity
0.00337
Inclination
66.5362°
RAAN
323.9479°
Arg. of periapsis
247.7399°
True anomaly
112.36748°
Mean anomaly
112.0095°
Eccentric anomaly
112.18855°
Mean motion
3.46888 °/min
Orbital period
103.78 mins
BSTAR
0.0003112
Loading maneuver chart data...
Computing Atmospheric mass density...

Documentation

Showing up to 5 results
|